Weather Roundup
Issued by NWS Chicago, IL

Home | Current Version | Previous Version | Text Only | Print | Product List | Glossary On
Versions: 1 2 3 4 5 6 7 8 9 10 11 12 13 14 15 16 17 18 19 20 21 22 23 24 25 26 27 28 29 30 31 32 33 34 35 36 37 38 39 40 41 42 43 44 45 46 47 48 49 50
000
NZUS59 KLOT 060821
HRRLOT

CHICAGO AREA WEATHER ROUNDUP
NATIONAL WEATHER SERVICE CHICAGO/ROMEOVILLE IL
300 AM CDT WED MAY 06 2015

NOTE: "FAIR" INDICATES FEW OR NO CLOUDS BELOW 12,000 FEET WITH NO
SIGNIFICANT WEATHER AND/OR OBSTRUCTIONS TO VISIBILITY.

* THESE STATIONS ARE NOT UNDER NWS QUALITY CONTROL. THEY ALSO MAY NOT
  REPORT WEATHER SUCH AS PRECIPITATION OR FOG.

ILZ005-006-012>014-019>023-060900-
NORTHEAST ILLINOIS

CITY           SKY/WX    TMP DP  RH WIND       PRES   REMARKS
OHARE          FOG       46  46 100 NE7       30.18F VSB 1/4
MIDWAY         CLOUDY    51  49  92 NE6       30.18F FOG
AURORA         FOG       51  48  89 NE8       30.18F VSB 1/2
LANSING*       FOG       49  47  93 N3        30.18F VSB 1/2
JOLIET*        FOG       54  54  99 NE6       30.17F VSB 1/4
WAUKEGAN       CLOUDY    46  43  89 NE3       30.20F
DUPAGE AIRPORT FOG       49  48  97 NE5       30.18F VSB 1/2
WHEELING       CLOUDY    46  45  96 NE5       30.22S FOG
KANKAKEE*      CLOUDY    61  61  99 E5        30.17S FOG
MORRIS*        FOG       53  53  97 NE5       30.14S VSB 1/2
LEWIS AIRPORT* DRZL/FOG  51  51 100 E5        30.17F VSB 1/4
NORTHERLY IS     N/A     47  46  97 N5          N/A
$$

WIZ051-052-058>065-066-070>072-060900-
SOUTHEAST WISCONSIN

CITY           SKY/WX    TMP DP  RH WIND       PRES   REMARKS
MILWAUKEE      CLOUDY    47  36  65 NE5       30.21F
KENOSHA*       CLOUDY    47  42  83 E6        30.20F
RACINE*        CLOUDY    47  40  76 NE3       30.22F
BURLINGTON     CLOUDY    46  41  84 E3        30.19F
WAUKESHA       CLOUDY    45  37  76 E3        30.20F
WEST BEND      CLOUDY    45  41  87 CALM      30.21F
$$

INZ001>003-010>013-019-020-060900-
NORTHWEST INDIANA

CITY           SKY/WX    TMP DP  RH WIND       PRES   REMARKS
GARY*          FOG       50  47  90 CALM      30.19S VSB 1/2
MICHIGAN CITY* NOT AVBL
RENSSELAER*    NOT AVBL
VALPARAISO     CLOUDY    58  57  97 E8        30.18F FOG
$$

LMZ740>746-060900-
SOUTHERN LAKE MICHIGAN

STATION/POSITION TIME  SKY/WX   TEMP WIND        PRES    VSBY
                                AIR  DIR/SP/G
                 (UTC)          (F)  (DEG/KT/KT) (MB)    (MI)
HARRISON CRIB    0800            44  350/  7/  8   N/A
BURNHAM HARBOR   0800            47  330/  5/  8   N/A
CALUMET HARBOR   0800            46  340/  5/  8   N/A
BURNS HARBOR     0700            52   50/  3/  4 1022.4F
MICHIGAN CITY    0800            56   60/  3/  5   N/A
$$

ABBREVIATIONS USED IN REMARKS
   TC - TEMPERATURE IN CELSIUS
  WCI - WIND CHILL INDEX
   HX - HEAT INDEX
  VSB - VISIBILITY
$$



USA.gov is the U.S. government's official web portal to all federal, state and local government web resources and services.